GW3188 Weather Reports


time (UTC)temp
F
wind
direction
speed
knots
gust
knots
rain 1hr
in
rain 24hr
in
rain mn
in
humidity
%
barometer
mb
20260510081552 51 293 1.7 3.5 0.00 0.00 0.00 84 1013.6
20260510081050 50 313 1.7 3.5 0.00 0.00 0.00 86 1013.6
20260510080552 50 330 1.7 3.5 0.00 0.00 0.00 87 1013.6
20260510080053 50 352 0.0 1.7 0.00 0.00 0.00 86 1013.5
20260510075547 50 0 0.0 0.0 0.00 0.00 0.00 85 1013.6
20260510075047 50 0 0.0 0.0 0.00 0.00 0.00 84 1013.6
20260510074559 50 0 0.0 0.9 0.00 0.00 0.00 83 1013.4
20260510074051 51 0 0.0 1.7 0.00 0.00 0.00 83 1013.4
20260510073549 51 0 0.0 1.7 0.00 0.00 0.00 81 1013.3
20260510073056 52 0 0.0 1.7 0.00 0.00 0.00 80 1013.3
20260510072548 53 0 0.0 0.0 0.00 0.00 0.00 78 1013.3
20260510072048 55 0 0.0 1.7 0.00 0.00 0.00 75 1013.3
20260510071550 56 0 0.0 4.3 0.00 0.00 0.00 72 1013.3
20260510071048 58 0 0.0 4.3 0.00 0.00 0.00 69 1013.3
20260510070548 58 316 2.6 4.3 0.00 0.00 0.00 67 1013.2
20260510070311 58 312 2.6 4.3 0.00 0.00 0.00 68 1013.2
20260510065551 58 298 2.6 4.3 0.00 0.00 0.00 66 1013.0
20260510065048 58 342 2.6 4.3 0.00 0.00 0.00 69 1012.9
20260510064559 59 301 1.7 5.2 0.00 0.00 0.00 65 1013.0
20260510064047 61 281 0.9 5.2 0.00 0.00 0.00 63 1013.0
20260510063548 61 304 2.6 4.3 0.00 0.00 0.00 59 1013.0
20260510063051 61 283 0.9 5.2 0.00 0.00 0.00 60 1013.0
20260510062551 62 292 2.6 5.2 0.00 0.00 0.00 60 1013.0
20260510062048 61 323 2.6 7.8 0.00 0.00 0.00 63 1012.9
20260510061550 62 313 2.6 7.8 0.00 0.00 0.00 61 1013.0
20260510061049 60 272 2.6 5.2 0.00 0.00 0.00 63 1013.0
20260510060551 59 0 0.0 2.6 0.00 0.00 0.00 67 1013.0
20260510060049 58 279 0.0 5.2 0.00 0.00 0.00 70 1013.1
20260510055547 57 0 0.9 5.2 0.00 0.00 0.00 70 1013.1
20260510055048 56 153 0.0 2.6 0.00 0.00 0.00 74 1013.0
20260510054556 56 0 0.0 2.6 0.00 0.00 0.00 74 1012.9
20260510054048 56 0 0.0 1.7 0.00 0.00 0.00 76 1012.9
20260510053548 57 0 0.0 3.5 0.00 0.00 0.00 76 1012.8
20260510053054 57 233 0.9 4.3 0.00 0.00 0.00 74 1012.8
20260510052550 56 284 0.0 4.3 0.00 0.00 0.00 76 1012.8
20260510052048 56 234 0.9 4.3 0.00 0.00 0.00 76 1012.9
20260510051606 55 0 0.0 3.5 0.00 0.00 0.00 78 1013.0
20260510051047 55 0 0.0 3.5 0.00 0.00 0.00 80 1012.9
20260510050548 53 0 0.9 3.5 0.00 0.00 0.00 83 1013.0
20260510050058 53 0 0.9 3.5 0.00 0.00 0.00 89 1013.1
20260510045548 52 327 0.0 2.6 0.00 0.00 0.00 90 1013.0
20260510045049 52 0 0.9 2.6 0.00 0.00 0.00 90 1013.0
20260510044602 52 0 0.0 0.0 0.00 0.00 0.00 90 1013.1
20260510044048 52 0 0.0 0.0 0.00 0.00 0.00 89 1013.2
20260510043548 53 0 0.0 0.0 0.00 0.00 0.00 89 1013.2
20260510043052 53 0 0.0 0.0 0.00 0.00 0.00 90 1013.2
20260510042551 53 0 0.0 0.0 0.00 0.00 0.00 90 1013.2
20260510042047 53 0 0.0 0.0 0.00 0.00 0.00 90 1013.2
20260510041552 53 0 0.0 0.0 0.00 0.00 0.00 91 1013.3
20260510041048 52 0 0.0 0.0 0.00 0.00 0.00 90 1013.3
20260510040550 53 0 0.0 0.0 0.00 0.00 0.00 90 1013.2
20260510040056 53 0 0.0 0.0 0.00 0.00 0.00 89 1013.2
20260510035550 53 0 0.0 0.0 0.00 0.00 0.00 89 1013.2
20260510035052 53 0 0.0 0.0 0.00 0.00 0.00 88 1013.2
20260510034550 54 0 0.0 0.0 0.00 0.00 0.00 87 1013.2
20260510034048 54 0 0.0 0.0 0.00 0.00 0.00 87 1013.2
20260510033548 54 0 0.0 0.0 0.00 0.00 0.00 87 1013.2
20260510033109 55 0 0.0 0.0 0.00 0.00 0.00 86 1013.1
20260510032549 55 0 0.0 0.0 0.00 0.00 0.00 85 1013.1
20260510032047 55 0 0.0 0.0 0.00 0.00 0.00 85 1013.0
20260510031551 56 0 0.0 0.0 0.00 0.00 0.00 84 1013.0
20260510031047 56 0 0.0 0.0 0.00 0.00 0.00 84 1013.1
20260510030548 57 0 0.0 0.0 0.00 0.00 0.00 83 1013.1
20260510025548 57 0 0.0 0.0 0.00 0.00 0.00 82 1013.0
20260510025049 58 0 0.0 0.0 0.00 0.00 0.00 82 1012.9
20260510024555 58 0 0.0 0.0 0.00 0.00 0.00 82 1013.0
20260510024049 58 0 0.0 0.9 0.00 0.00 0.00 82 1013.0
20260510023549 58 0 0.0 1.7 0.00 0.00 0.00 81 1012.9
20260510023055 58 0 0.0 1.7 0.00 0.00 0.00 80 1012.8
20260510022549 59 0 0.0 2.6 0.00 0.00 0.00 80 1012.7
20260510022049 59 0 0.0 2.6 0.00 0.00 0.00 80 1012.5
20260510021558 59 294 0.9 2.6 0.00 0.00 0.00 78 1012.5
20260510021048 60 320 0.9 2.6 0.00 0.00 0.00 77 1012.4
20260510020549 60 0 0.0 1.7 0.00 0.00 0.00 76 1012.4
20260510020050 60 294 0.9 3.5 0.00 0.00 0.00 76 1012.4
20260510015550 60 306 0.9 4.3 0.00 0.00 0.00 77 1012.2
20260510015049 61 314 1.7 4.3 0.00 0.00 0.00 76 1012.1
20260510014556 61 313 2.6 4.3 0.00 0.00 0.00 75 1011.9
20260510014049 61 299 1.7 3.5 0.00 0.00 0.00 74 1011.7
20260510013549 61 288 1.7 3.5 0.00 0.00 0.00 74 1011.7
20260510013051 61 301 0.9 2.6 0.00 0.00 0.00 74 1011.6
20260510012552 61 298 1.7 2.6 0.00 0.00 0.00 74 1011.6
20260510012052 62 317 1.7 2.6 0.00 0.00 0.00 73 1011.5
20260510011552 63 296 1.7 2.6 0.00 0.00 0.00 71 1011.6
20260510011049 63 290 0.9 2.6 0.00 0.00 0.00 70 1011.5
20260510010548 64 0 0.9 2.6 0.00 0.00 0.00 69 1011.5
20260510010050 64 303 0.9 2.6 0.00 0.00 0.00 68 1011.4
20260510005551 65 321 0.9 2.6 0.00 0.00 0.00 67 1011.3
20260510005049 64 313 1.7 2.6 0.00 0.00 0.00 67 1011.1
20260510004552 65 295 0.9 3.5 0.00 0.00 0.00 66 1011.1
20260510004049 65 295 0.9 3.5 0.00 0.00 0.00 66 1010.9
20260510003549 66 303 0.9 3.5 0.00 0.00 0.00 64 1010.9
20260510003054 66 0 0.9 1.7 0.00 0.00 0.00 64 1010.6
20260510002549 66 305 0.9 2.6 0.00 0.00 0.00 63 1010.6
20260510002048 67 316 0.0 2.6 0.00 0.00 0.00 62 1010.6
20260510001551 68 316 0.0 2.6 0.00 0.00 0.00 61 1010.6
20260510001049 68 283 0.0 1.7 0.00 0.00 0.00 59 1010.6
20260510000548 69 128 0.0 2.6 0.00 0.00 0.00 58 1010.5
20260510000050 69 0 0.0 2.6 0.00 0.00 0.00 57 1010.4
20260509235550 70 155 0.9 3.5 0.00 0.00 0.00 56 1010.3
20260509235049 70 177 0.9 3.5 0.00 0.00 0.00 56 1010.3
20260509234550 70 204 0.9 4.3 0.00 0.00 0.00 55 1010.3
20260509234049 71 0 0.9 4.3 0.00 0.00 0.00 55 1010.2
20260509233551 71 167 0.9 4.3 0.00 0.00 0.00 54 1010.2
20260509233050 71 188 0.9 4.3 0.00 0.00 0.00 53 1010.2
20260509232548 72 161 0.9 4.3 0.00 0.00 0.00 53 1010.2
20260509232048 72 0 0.9 4.3 0.00 0.00 0.00 53 1010.2
20260509231550 72 193 0.9 5.2 0.00 0.00 0.00 53 1010.2
20260509231048 72 175 2.6 7.0 0.00 0.00 0.00 53 1010.2
20260509230547 72 172 1.7 7.0 0.00 0.00 0.00 52 1010.2
20260509230058 72 226 2.6 9.6 0.00 0.00 0.00 52 1010.2
20260509225549 72 223 2.6 9.6 0.00 0.00 0.00 51 1010.1
20260509225050 72 148 2.6 8.7 0.00 0.00 0.00 51 1010.1
20260509224558 72 126 1.7 8.7 0.00 0.00 0.00 52 1010.1
20260509224052 72 196 2.6 7.0 0.00 0.00 0.00 51 1010.2
20260509223548 72 220 0.9 6.1 0.00 0.00 0.00 51 1010.2
20260509223052 72 136 1.7 7.8 0.00 0.00 0.00 51 1010.3
20260509222549 72 222 0.9 7.8 0.00 0.00 0.00 50 1010.3
20260509222047 73 158 1.7 7.8 0.00 0.00 0.00 50 1010.2
20260509221550 73 192 1.7 8.7 0.00 0.00 0.00 51 1010.3
20260509221047 73 159 0.9 8.7 0.00 0.00 0.00 51 1010.1
20260509220548 73 111 1.7 8.7 0.00 0.00 0.00 50 1010.2
20260509220052 73 195 2.6 5.2 0.00 0.00 0.00 50 1010.2
20260509215548 73 115 0.9 6.1 0.00 0.00 0.00 51 1010.1
20260509215049 73 283 1.7 6.1 0.00 0.00 0.00 52 1010.2
20260509214559 73 50 2.6 6.1 0.00 0.00 0.00 50 1010.2
20260509214048 73 351 2.6 7.8 0.00 0.00 0.00 50 1010.0
20260509213550 73 69 1.7 7.8 0.00 0.00 0.00 50 1010.0
20260509213126 73 107 2.6 8.7 0.00 0.00 0.00 51 1010.0
20260509212549 72 147 3.5 8.7 0.00 0.00 0.00 51 1010.1
20260509212048 72 126 4.3 8.7 0.00 0.00 0.00 50 1010.1
20260509211553 72 132 2.6 7.0 0.00 0.00 0.00 51 1010.0
20260509211048 72 226 1.7 7.0 0.00 0.00 0.00 50 1009.9
20260509210549 72 352 0.9 4.3 0.00 0.00 0.00 50 1010.0
20260509205549 72 302 0.9 6.1 0.00 0.00 0.00 49 1010.0
20260509205047 72 288 1.7 6.1 0.00 0.00 0.00 51 1010.0
20260509204550 72 198 1.7 7.8 0.00 0.00 0.00 49 1009.8
20260509204049 73 132 1.7 10.4 0.00 0.00 0.00 49 1009.8
20260509203548 73 123 2.6 10.4 0.00 0.00 0.00 48 1009.6
20260509203053 73 185 7.0 10.4 0.00 0.00 0.00 47 1009.6
20260509202549 73 147 2.6 8.7 0.00 0.00 0.00 49 1009.7
20260509202048 73 176 4.3 8.7 0.00 0.00 0.00 48 1009.7
20260509201553 73 148 2.6 7.0 0.00 0.00 0.00 46 1009.8
20260509201048 73 128 1.7 9.6 0.00 0.00 0.00 46 1009.8
20260509200550 74 327 2.6 10.4 0.00 0.00 0.00 45 1009.8
20260509200103 74 169 4.3 10.4 0.00 0.00 0.00 45 1009.9
20260509195548 74 258 4.3 9.6 0.00 0.00 0.00 45 1009.9
20260509195052 74 211 1.7 10.4 0.00 0.00 0.00 46 1009.8
20260509194549 72 35 2.6 10.4 0.00 0.00 0.00 48 1009.9
20260509194048 72 171 3.5 10.4 0.00 0.00 0.00 48 1010.2
20260509193548 71 138 0.9 7.0 0.00 0.00 0.00 50 1010.3
20260509193049 71 205 1.7 10.4 0.00 0.00 0.00 52 1010.4
20260509192550 71 198 3.5 10.4 0.00 0.00 0.00 49 1010.4
20260509192049 71 167 2.6 10.4 0.00 0.00 0.00 51 1010.4
20260509191553 71 173 4.3 9.6 0.00 0.00 0.00 49 1010.5
20260509191048 72 153 3.5 8.7 0.00 0.00 0.00 49 1010.6
20260509190548 72 142 2.6 10.4 0.00 0.00 0.00 49 1010.6
20260509190056 72 165 4.3 10.4 0.00 0.00 0.00 48 1010.6
20260509185548 73 165 5.2 10.4 0.00 0.00 0.00 48 1010.7
20260509185048 73 148 3.5 8.7 0.00 0.00 0.00 48 1010.7
20260509184558 73 238 1.7 9.6 0.00 0.00 0.00 48 1010.9
20260509184049 74 190 2.6 9.6 0.00 0.00 0.00 45 1010.9
20260509183548 73 232 3.5 9.6 0.00 0.00 0.00 48 1010.7
20260509183051 73 282 2.6 9.6 0.00 0.00 0.00 48 1010.9
20260509182550 72 148 4.3 9.6 0.00 0.00 0.00 47 1010.9
20260509182047 71 163 3.5 11.3 0.00 0.00 0.00 51 1011.1
20260509181557 71 225 4.3 11.3 0.00 0.00 0.00 49 1011.2
20260509181049 72 96 3.5 11.3 0.00 0.00 0.00 47 1011.2
20260509180549 72 149 4.3 11.3 0.00 0.00 0.00 49 1011.5
20260509180051 72 188 2.6 9.6 0.00 0.00 0.00 51 1011.5
20260509175548 71 331 4.3 9.6 0.00 0.00 0.00 51 1011.7
20260509175048 71 208 2.6 8.7 0.00 0.00 0.00 53 1011.7
20260509174554 71 107 3.5 8.7 0.00 0.00 0.00 50 1011.7
20260509174048 71 360 3.5 9.6 0.00 0.00 0.00 54 1011.7
20260509173547 70 113 3.5 14.8 0.00 0.00 0.00 55 1011.8
20260509173050 69 192 5.2 14.8 0.00 0.00 0.00 57 1011.8
20260509172549 69 165 4.3 13.9 0.00 0.00 0.00 55 1012.0
20260509172052 70 280 3.5 11.3 0.00 0.00 0.00 56 1012.1
20260509171553 70 180 4.3 13.9 0.00 0.00 0.00 56 1012.0
20260509171047 70 94 2.6 13.9 0.00 0.00 0.00 56 1012.0
20260509170548 69 134 7.0 16.5 0.00 0.00 0.00 57 1012.2
20260509170052 69 139 7.0 16.5 0.00 0.00 0.00 57 1012.1
20260509165548 69 165 4.3 10.4 0.00 0.00 0.00 58 1012.1
20260509165047 68 180 4.3 13.9 0.00 0.00 0.00 59 1011.9
20260509164553 68 157 4.3 15.6 0.00 0.00 0.00 57 1012.0
20260509164047 68 91 6.1 15.6 0.00 0.00 0.00 58 1011.9
20260509163548 68 155 6.1 13.0 0.00 0.00 0.00 57 1012.1
20260509163051 68 128 5.2 13.0 0.00 0.00 0.00 58 1012.2
20260509162551 68 173 3.5 8.7 0.00 0.00 0.00 60 1012.1
20260509162047 67 30 2.6 7.8 0.00 0.00 0.00 58 1012.1
20260509161549 67 211 2.6 7.8 0.00 0.00 0.00 57 1012.1
20260509161052 67 186 2.6 11.3 0.00 0.00 0.00 57 1012.0
20260509160550 67 113 3.5 11.3 0.00 0.00 0.00 59 1012.0
20260509160051 67 294 2.6 7.8 0.00 0.00 0.00 56 1012.0
20260509155548 67 167 2.6 11.3 0.00 0.00 0.00 57 1012.1
20260509155047 67 161 2.6 11.3 0.00 0.00 0.00 56 1012.0
20260509154551 68 352 2.6 9.6 0.00 0.00 0.00 55 1012.1
20260509154048 68 307 1.7 7.8 0.00 0.00 0.00 57 1012.2
20260509153554 68 0 1.7 7.8 0.00 0.00 0.00 57 1012.2
20260509153102 67 161 1.7 7.8 0.00 0.00 0.00 60 1012.1
20260509152550 66 158 0.9 6.1 0.00 0.00 0.00 58 1012.2
20260509152051 66 321 1.7 4.3 0.00 0.00 0.00 58 1012.1
20260509151554 65 157 1.7 5.2 0.00 0.00 0.00 61 1012.4
20260509151048 65 339 1.7 6.1 0.00 0.00 0.00 60 1012.4
20260509150551 64 209 2.6 7.0 0.00 0.00 0.00 59 1012.5
20260509150052 64 0 2.6 7.0 0.00 0.00 0.00 59 1012.5
20260509145553 64 295 3.5 7.0 0.00 0.00 0.00 59 1012.5
20260509145050 64 311 1.7 9.6 0.00 0.00 0.00 60 1012.5
20260509144558 64 292 3.5 9.6 0.00 0.00 0.00 58 1012.5
20260509144053 64 276 1.7 7.8 0.00 0.00 0.00 59 1012.6
20260509143550 63 0 3.5 7.8 0.00 0.00 0.00 61 1012.6
20260509143055 63 315 2.6 5.2 0.00 0.00 0.00 61 1012.4
20260509142550 62 315 0.9 4.3 0.00 0.00 0.00 61 1012.5
20260509142050 61 0 0.0 0.0 0.00 0.00 0.00 64 1012.5
20260509141552 61 0 0.0 0.0 0.00 0.00 0.00 63 1012.5
20260509141052 61 0 0.0 0.0 0.00 0.00 0.00 64 1012.6
20260509140548 60 0 0.0 3.5 0.00 0.00 0.00 63 1012.6
20260509140104 60 0 0.0 3.5 0.00 0.00 0.00 64 1012.7
20260509135548 60 182 0.9 4.3 0.00 0.00 0.00 64 1012.8
20260509135048 60 161 1.7 4.3 0.00 0.00 0.00 65 1013.0
20260509134551 59 0 0.0 2.6 0.00 0.00 0.00 66 1012.9
20260509134050 58 298 0.9 2.6 0.00 0.00 0.00 66 1013.0
20260509133548 58 32 0.9 2.6 0.00 0.00 0.00 65 1012.9
20260509133053 58 29 0.9 2.6 0.00 0.00 0.00 64 1012.9
20260509132554 58 269 0.0 1.7 0.00 0.00 0.00 67 1013.0
20260509132051 57 0 0.0 2.6 0.00 0.00 0.00 68 1013.0
20260509131550 57 0 0.9 2.6 0.00 0.00 0.00 67 1013.1
20260509131050 57 0 0.0 1.7 0.00 0.00 0.00 68 1013.2
20260509130551 57 0 0.0 2.6 0.00 0.00 0.00 71 1013.2
20260509130053 56 0 0.0 3.5 0.00 0.00 0.00 70 1013.2
20260509125550 56 294 0.9 3.5 0.00 0.00 0.00 69 1013.3
20260509125048 56 294 1.7 3.5 0.00 0.00 0.00 69 1013.4
20260509124552 56 309 1.7 4.3 0.00 0.00 0.00 69 1013.4
20260509124048 56 279 1.7 4.3 0.00 0.00 0.00 69 1013.4
20260509123552 56 306 2.6 4.3 0.00 0.00 0.00 68 1013.4
20260509123049 56 332 0.9 2.6 0.00 0.00 0.00 69 1013.4
20260509122551 56 0 0.9 2.6 0.00 0.00 0.00 69 1013.3
20260509122047 55 317 0.9 2.6 0.00 0.00 0.00 69 1013.3
20260509121551 55 319 0.0 1.7 0.00 0.00 0.00 71 1013.3
20260509121049 54 329 0.0 0.9 0.00 0.00 0.00 72 1013.5
20260509120549 54 0 0.0 0.0 0.00 0.00 0.00 77 1013.4
20260509120104 54 0 0.0 0.0 0.00 0.00 0.00 80 1013.4
20260509115548 53 0 0.0 0.0 0.00 0.00 0.00 81 1013.3
20260509115048 52 0 0.0 0.0 0.00 0.00 0.00 81 1013.3
20260509114549 52 0 0.0 1.7 0.00 0.00 0.00 81 1013.3
20260509114048 52 0 0.0 2.6 0.00 0.00 0.00 81 1013.3
20260509113548 51 308 0.9 2.6 0.00 0.00 0.00 80 1013.3
20260509113055 51 311 0.9 2.6 0.00 0.00 0.00 81 1013.3
20260509112548 51 337 0.0 2.6 0.00 0.00 0.00 80 1013.2
20260509112048 51 0 0.0 0.0 0.00 0.00 0.00 81 1013.2
20260509111552 51 0 0.0 0.0 0.00 0.00 0.00 79 1013.2
20260509111048 51 0 0.0 0.0 0.00 0.00 0.00 79 1013.1
20260509110549 51 0 0.0 0.0 0.00 0.00 0.00 79 1013.2
20260509110056 50 0 0.0 0.0 0.00 0.00 0.00 79 1013.1
20260509105551 50 0 0.0 0.0 0.00 0.00 0.00 78 1013.1
20260509105049 50 0 0.0 0.0 0.00 0.00 0.00 78 1013.1
20260509104548 50 0 0.0 0.0 0.00 0.00 0.00 77 1012.9
20260509104048 50 0 0.0 0.0 0.00 0.00 0.00 77 1013.0
20260509103548 50 0 0.0 0.0 0.00 0.00 0.00 77 1013.0
20260509103101 50 0 0.0 0.0 0.00 0.00 0.00 76 1013.1
20260509102548 51 0 0.0 0.0 0.00 0.00 0.00 76 1013.1
20260509102049 51 0 0.0 0.0 0.00 0.00 0.00 75 1013.1
20260509101559 51 0 0.0 0.0 0.00 0.00 0.00 75 1013.0
20260509101050 51 0 0.0 0.0 0.00 0.00 0.00 76 1013.0
20260509100548 51 0 0.0 0.0 0.00 0.00 0.00 72 1013.1
20260509100054 51 0 0.0 0.0 0.00 0.00 0.00 72 1013.0
20260509095548 51 0 0.0 0.0 0.00 0.00 0.00 74 1013.0
20260509095049 51 0 0.0 0.0 0.00 0.00 0.00 72 1013.0
20260509094552 51 0 0.0 0.0 0.00 0.00 0.00 71 1013.0
20260509094049 51 0 0.0 0.0 0.00 0.00 0.00 74 1013.0
20260509093548 51 0 0.0 0.0 0.00 0.00 0.00 73 1013.0
20260509093053 51 0 0.0 0.0 0.00 0.00 0.00 73 1012.9
20260509092552 51 0 0.0 0.0 0.00 0.00 0.00 73 1013.0
20260509092048 51 0 0.0 0.0 0.00 0.00 0.00 70 1013.1
20260509091619 52 0 0.0 0.0 0.00 0.00 0.00 71 1013.1
20260509091051 52 0 0.0 0.0 0.00 0.00 0.00 70 1013.2
20260509090551 52 0 0.0 0.0 0.00 0.00 0.00 70 1013.1
20260509090052 52 0 0.0 0.0 0.00 0.00 0.00 69 1013.2
20260509085548 52 0 0.0 2.6 0.00 0.00 0.00 67 1013.3
20260509085048 52 0 0.0 2.6 0.00 0.00 0.00 73 1013.3
20260509084552 53 329 0.9 2.6 0.00 0.00 0.00 70 1013.3
20260509084049 54 0 0.0 1.7 0.00 0.00 0.00 67 1013.4
20260509083548 54 0 0.0 1.7 0.00 0.00 0.00 63 1013.3
20260509083055 54 0 0.0 1.7 0.00 0.00 0.00 64 1013.4
20260509082548 54 0 0.0 1.7 0.00 0.00 0.00 62 1013.5
20260509082053 54 0 0.0 0.0 0.00 0.00 0.00 62 1013.5